VTREG CYFB-BGGH

Flight info

Callsign VTREG
Flight time 1h 41m
Altitude 31000
Route MUSVA/M048F310 DCT CLAVY
Aircraft SF50/L-BDGRSWY/LB2U2

Departure

Time 2026-04-23 18:22
Airport Iqaluit Airport (CYFB)

Arrival

Time 2026-04-23 20:04
Airport Nuuk International Airport (BGGH)
Time Latitude Longitude Altitude Speed Heading
2026-04-23 18:09 63.75486 -68.54228 84 ft 0 kts 134°
2026-04-23 18:17 63.75483 -68.54226 104 ft 3 kts 171°
2026-04-23 18:18 63.75444 -68.54316 86 ft 10 kts 227°
2026-04-23 18:18 63.75409 -68.54323 84 ft 6 kts 131°
2026-04-23 18:18 63.75366 -68.54231 85 ft 11 kts 137°
2026-04-23 18:18 63.75319 -68.54127 82 ft 8 kts 136°
2026-04-23 18:19 63.75283 -68.54046 81 ft 7 kts 134°
2026-04-23 18:19 63.75230 -68.53931 81 ft 14 kts 136°
2026-04-23 18:19 63.75124 -68.53858 73 ft 16 kts 171°
2026-04-23 18:19 63.75045 -68.53729 77 ft 13 kts 133°
2026-04-23 18:20 63.74986 -68.53602 72 ft 10 kts 135°
2026-04-23 18:20 63.74937 -68.53496 74 ft 11 kts 145°
2026-04-23 18:20 63.74863 -68.53545 74 ft 12 kts 218°
2026-04-23 18:20 63.74809 -68.53659 73 ft 9 kts 245°
2026-04-23 18:21 63.74814 -68.53735 72 ft 0 kts 313°
2026-04-23 18:21 63.74956 -68.54053 76 ft 60 kts 317°
2026-04-23 18:21 63.75378 -68.54991 187 ft 99 kts 316°
2026-04-23 18:22 63.75866 -68.56083 648 ft 101 kts 316°
2026-04-23 18:22 63.76397 -68.57197 1167 ft 106 kts 317°
2026-04-23 18:22 63.76971 -68.58474 1491 ft 127 kts 315°
2026-04-23 18:22 63.77622 -68.59941 1882 ft 135 kts 316°
2026-04-23 18:23 63.78297 -68.61451 2361 ft 139 kts 317°
2026-04-23 18:23 63.79705 -68.64580 3288 ft 144 kts 317°
2026-04-23 18:24 63.81148 -68.67810 4216 ft 148 kts 317°
2026-04-23 18:24 63.81881 -68.69444 4670 ft 148 kts 319°
2026-04-23 18:24 63.82626 -68.71081 5083 ft 151 kts 318°
2026-04-23 18:25 63.84115 -68.74434 5804 ft 153 kts 318°
2026-04-23 18:25 63.84873 -68.76133 6137 ft 154 kts 318°
2026-04-23 18:25 63.85643 -68.77848 6446 ft 162 kts 318°
2026-04-23 18:25 63.86597 -68.79479 6716 ft 180 kts 344°
2026-04-23 18:26 63.87776 -68.79294 7325 ft 170 kts 30°
2026-04-23 18:26 63.88497 -68.77290 7856 ft 168 kts 74°
2026-04-23 18:26 63.88558 -68.74651 8394 ft 169 kts 98°
2026-04-23 18:26 63.88511 -68.71952 8957 ft 172 kts 89°
2026-04-23 18:27 63.88610 -68.69224 9508 ft 175 kts 86°
2026-04-23 18:27 63.88721 -68.66454 10040 ft 178 kts 87°
2026-04-23 18:27 63.88835 -68.63637 10533 ft 180 kts 87°
2026-04-23 18:27 63.88949 -68.60791 10974 ft 182 kts 88°
2026-04-23 18:28 63.89019 -68.58903 11259 ft 183 kts 88°
2026-04-23 18:29 63.89627 -68.43145 13532 ft 202 kts 89°
2026-04-23 18:29 63.89747 -68.40018 14187 ft 194 kts 90°
2026-04-23 18:29 63.89786 -68.39028 14353 ft 194 kts 90°
2026-04-23 18:30 63.90232 -68.26843 15807 ft 206 kts 92°
2026-04-23 18:30 63.90352 -68.23591 16196 ft 209 kts 93°
2026-04-23 18:31 63.90475 -68.20276 16587 ft 211 kts 94°
2026-04-23 18:31 63.90596 -68.16923 16958 ft 214 kts 94°
2026-04-23 18:31 63.90720 -68.13529 17331 ft 217 kts 95°
2026-04-23 18:31 63.90842 -68.10096 17705 ft 219 kts 95°
2026-04-23 18:32 63.90967 -68.06609 18095 ft 222 kts 95°
2026-04-23 18:32 63.91089 -68.03138 18475 ft 224 kts 96°
2026-04-23 18:32 63.91214 -67.99586 18858 ft 227 kts 96°
2026-04-23 18:32 63.91340 -67.95985 19203 ft 229 kts 97°
2026-04-23 18:33 63.91466 -67.92364 19557 ft 230 kts 97°
2026-04-23 18:33 63.91589 -67.88715 19916 ft 232 kts 98°
2026-04-23 18:33 63.91714 -67.85049 20282 ft 233 kts 98°
2026-04-23 18:33 63.91837 -67.81369 20636 ft 234 kts 99°
2026-04-23 18:34 63.91961 -67.77666 20999 ft 236 kts 99°
2026-04-23 18:34 63.92042 -67.75213 21236 ft 237 kts 99°
2026-04-23 18:34 63.92209 -67.70196 21738 ft 238 kts 100°
2026-04-23 18:34 63.92291 -67.67717 22008 ft 237 kts 101°
2026-04-23 18:35 63.92412 -67.63986 22401 ft 236 kts 101°
2026-04-23 18:35 63.92567 -67.59050 22928 ft 236 kts 102°
2026-04-23 18:35 63.92687 -67.55340 23329 ft 235 kts 103°
2026-04-23 18:35 63.92806 -67.51619 23708 ft 235 kts 103°
2026-04-23 18:36 63.92922 -67.47925 24087 ft 234 kts 104°
2026-04-23 18:36 63.92998 -67.45477 24316 ft 234 kts 104°
2026-04-23 18:36 63.93113 -67.41776 24621 ft 234 kts 104°
2026-04-23 18:36 63.93227 -67.38091 24917 ft 234 kts 105°
2026-04-23 18:37 63.93340 -67.34384 25237 ft 234 kts 105°
2026-04-23 18:37 63.93488 -67.29484 25632 ft 234 kts 105°
2026-04-23 18:37 63.93563 -67.27004 25829 ft 234 kts 105°
2026-04-23 18:37 63.93674 -67.23297 26130 ft 234 kts 106°
2026-04-23 18:38 63.93783 -67.19609 26430 ft 234 kts 106°
2026-04-23 18:38 63.93891 -67.15914 26731 ft 234 kts 106°
2026-04-23 18:38 63.93999 -67.12221 27026 ft 234 kts 107°
2026-04-23 18:38 63.94104 -67.08567 27318 ft 234 kts 107°
2026-04-23 18:39 63.94211 -67.04824 27611 ft 234 kts 107°
2026-04-23 18:39 63.94314 -67.01174 27891 ft 234 kts 107°
2026-04-23 18:39 63.94416 -66.97486 28185 ft 234 kts 107°
2026-04-23 18:39 63.94517 -66.93795 28464 ft 234 kts 108°
2026-04-23 18:40 63.94618 -66.90112 28745 ft 234 kts 108°
2026-04-23 18:40 63.94718 -66.86419 29017 ft 234 kts 108°
2026-04-23 18:40 63.94817 -66.82736 29308 ft 233 kts 108°
2026-04-23 18:40 63.94914 -66.79039 29587 ft 233 kts 108°
2026-04-23 18:41 63.95011 -66.75357 29869 ft 233 kts 108°
2026-04-23 18:41 63.95107 -66.71671 30139 ft 233 kts 109°
2026-04-23 18:41 63.95201 -66.67991 30415 ft 233 kts 109°
2026-04-23 18:41 63.95295 -66.64306 30688 ft 233 kts 109°
2026-04-23 18:42 63.95388 -66.60632 30905 ft 234 kts 109°
2026-04-23 18:42 63.95477 -66.56955 31039 ft 238 kts 109°
2026-04-23 18:42 63.95559 -66.53110 31045 ft 249 kts 108°
2026-04-23 18:42 63.95659 -66.49079 31054 ft 260 kts 107°
2026-04-23 18:43 63.95765 -66.44879 31053 ft 270 kts 105°
2026-04-23 18:43 63.95872 -66.40584 31056 ft 278 kts 105°
2026-04-23 18:43 63.95979 -66.36133 31052 ft 283 kts 105°
2026-04-23 18:43 63.96087 -66.31605 31056 ft 289 kts 104°
2026-04-23 18:44 63.96195 -66.26977 31055 ft 294 kts 104°
2026-04-23 18:44 63.96299 -66.22316 31049 ft 298 kts 104°
2026-04-23 18:44 63.96408 -66.17573 31055 ft 302 kts 103°
2026-04-23 18:45 63.96623 -66.07953 31107 ft 305 kts 103°
2026-04-23 18:45 63.96730 -66.03151 31231 ft 303 kts 103°
2026-04-23 18:45 63.96832 -65.98383 31345 ft 302 kts 103°
2026-04-23 18:45 63.96932 -65.93659 31463 ft 299 kts 104°
2026-04-23 18:46 63.97025 -65.88890 31588 ft 298 kts 104°
2026-04-23 18:46 63.97118 -65.84177 31658 ft 300 kts 104°
2026-04-23 18:46 63.97209 -65.79442 31662 ft 303 kts 104°
2026-04-23 18:47 63.97398 -65.69765 31671 ft 308 kts 103°
2026-04-23 18:47 63.97579 -65.59945 31676 ft 313 kts 103°
2026-04-23 18:48 63.97754 -65.50063 31681 ft 318 kts 103°
2026-04-23 18:48 63.97931 -65.39920 31682 ft 323 kts 103°
2026-04-23 18:49 63.98103 -65.29654 31685 ft 326 kts 103°
2026-04-23 18:49 63.98264 -65.19282 31684 ft 329 kts 102°
2026-04-23 18:50 63.98398 -65.10608 31684 ft 330 kts 102°
2026-04-23 18:50 63.98576 -64.98427 31678 ft 328 kts 102°
2026-04-23 18:51 63.98711 -64.88094 31680 ft 329 kts 102°
2026-04-23 18:51 63.98857 -64.77681 31684 ft 330 kts 102°
2026-04-23 18:52 63.98974 -64.67253 31685 ft 329 kts 102°
2026-04-23 18:52 63.99099 -64.56947 31681 ft 325 kts 102°
2026-04-23 18:53 63.99205 -64.46589 31678 ft 328 kts 102°
2026-04-23 18:53 63.99315 -64.36153 31672 ft 329 kts 102°
2026-04-23 18:54 63.99412 -64.25755 31669 ft 328 kts 102°
2026-04-23 18:54 63.99503 -64.15318 31665 ft 328 kts 102°
2026-04-23 18:55 63.99585 -64.04976 31661 ft 328 kts 102°
2026-04-23 18:55 63.99660 -63.94575 31655 ft 328 kts 102°
2026-04-23 18:56 63.99716 -63.85865 31658 ft 328 kts 102°
2026-04-23 18:56 63.99787 -63.73843 31652 ft 328 kts 102°
2026-04-23 18:57 63.99839 -63.63452 31642 ft 328 kts 102°
2026-04-23 18:57 63.99884 -63.53083 31644 ft 327 kts 102°
2026-04-23 18:58 63.99921 -63.42759 31641 ft 327 kts 102°
2026-04-23 18:58 63.99951 -63.32405 31632 ft 327 kts 102°
2026-04-23 18:59 63.99974 -63.22059 31632 ft 326 kts 102°
2026-04-23 18:59 63.99991 -63.11699 31632 ft 326 kts 102°
2026-04-23 19:00 64.00004 -63.01373 31629 ft 327 kts 101°
2026-04-23 19:00 64.00273 -62.96150 31623 ft 338 kts 91°
2026-04-23 19:00 64.00678 -62.90870 31625 ft 337 kts 92°
2026-04-23 19:01 64.01409 -62.80326 31617 ft 337 kts 92°
2026-04-23 19:01 64.02162 -62.69849 31617 ft 336 kts 92°
2026-04-23 19:02 64.02778 -62.61019 31613 ft 336 kts 92°
2026-04-23 19:02 64.03629 -62.48769 31614 ft 336 kts 92°
2026-04-23 19:03 64.04352 -62.38225 31609 ft 336 kts 92°
2026-04-23 19:03 64.05067 -62.27664 31605 ft 336 kts 92°
2026-04-23 19:04 64.05774 -62.17116 31601 ft 336 kts 92°
2026-04-23 19:04 64.06472 -62.06567 31596 ft 336 kts 92°
2026-04-23 19:05 64.07158 -61.96097 31602 ft 335 kts 92°
2026-04-23 19:05 64.07841 -61.85540 31596 ft 336 kts 92°
2026-04-23 19:06 64.08517 -61.74976 31597 ft 335 kts 92°
2026-04-23 19:06 64.09183 -61.64428 31590 ft 335 kts 92°
2026-04-23 19:07 64.09842 -61.53877 31588 ft 335 kts 92°
2026-04-23 19:07 64.10493 -61.43328 31584 ft 335 kts 92°
2026-04-23 19:08 64.11136 -61.32822 31572 ft 335 kts 92°
2026-04-23 19:08 64.11771 -61.22272 31578 ft 335 kts 92°
2026-04-23 19:09 64.12400 -61.11707 31564 ft 335 kts 92°
2026-04-23 19:09 64.13023 -61.01115 31571 ft 335 kts 92°
2026-04-23 19:10 64.13636 -60.90541 31570 ft 335 kts 92°
2026-04-23 19:10 64.14243 -60.79960 31564 ft 335 kts 92°
2026-04-23 19:11 64.14841 -60.69372 31567 ft 335 kts 92°
2026-04-23 19:11 64.15432 -60.58777 31564 ft 335 kts 92°
2026-04-23 19:12 64.15917 -60.49954 31557 ft 335 kts 92°
2026-04-23 19:12 64.16586 -60.37637 31556 ft 335 kts 92°
2026-04-23 19:13 64.17152 -60.27045 31554 ft 335 kts 92°
2026-04-23 19:13 64.17711 -60.16445 31551 ft 335 kts 92°
2026-04-23 19:14 64.18261 -60.05845 31548 ft 334 kts 92°
2026-04-23 19:14 64.18804 -59.95239 31545 ft 334 kts 92°
2026-04-23 19:15 64.19340 -59.84629 31544 ft 334 kts 92°
2026-04-23 19:15 64.19868 -59.74009 31541 ft 334 kts 92°
2026-04-23 19:16 64.20389 -59.63401 31538 ft 334 kts 92°
2026-04-23 19:16 64.20901 -59.52804 31538 ft 334 kts 92°
2026-04-23 19:17 64.21652 -59.36953 31533 ft 334 kts 92°
2026-04-23 19:17 64.22145 -59.26342 31537 ft 334 kts 92°
2026-04-23 19:18 64.22630 -59.15748 31525 ft 333 kts 92°
2026-04-23 19:18 64.23107 -59.05150 31523 ft 333 kts 92°
2026-04-23 19:19 64.23264 -58.89413 31521 ft 328 kts 99°
2026-04-23 19:20 64.23172 -58.73709 31513 ft 327 kts 99°
2026-04-23 19:20 64.23095 -58.63276 31513 ft 327 kts 99°
2026-04-23 19:21 64.22964 -58.47617 31506 ft 326 kts 99°
2026-04-23 19:22 64.22867 -58.37190 31503 ft 326 kts 99°
2026-04-23 19:22 64.22710 -58.21670 31498 ft 325 kts 99°
2026-04-23 19:23 64.22595 -58.11271 31497 ft 325 kts 99°
2026-04-23 19:24 64.22431 -57.97477 31489 ft 324 kts 99°
2026-04-23 19:24 64.22233 -57.81954 31492 ft 323 kts 99°
2026-04-23 19:25 64.21943 -57.61280 31481 ft 323 kts 99°
2026-04-23 19:26 64.21707 -57.45822 31478 ft 323 kts 99°
2026-04-23 19:27 64.21280 -57.20146 31471 ft 321 kts 99°
2026-04-23 19:28 64.20904 -56.99684 31465 ft 321 kts 99°
2026-04-23 19:29 64.20604 -56.84302 31458 ft 321 kts 99°
2026-04-23 19:30 64.20289 -56.69012 31457 ft 320 kts 99°
2026-04-23 19:31 64.19957 -56.53692 31455 ft 320 kts 99°
2026-04-23 19:31 64.19726 -56.43487 31452 ft 320 kts 99°
2026-04-23 19:32 64.19489 -56.33286 31451 ft 319 kts 99°
2026-04-23 19:32 64.19246 -56.23124 31448 ft 319 kts 99°
2026-04-23 19:33 64.18997 -56.12952 31445 ft 319 kts 99°
2026-04-23 19:33 64.18611 -55.97778 31438 ft 318 kts 99°
2026-04-23 19:34 64.18345 -55.87657 31444 ft 318 kts 99°
2026-04-23 19:35 64.17933 -55.72497 31433 ft 317 kts 99°
2026-04-23 19:35 64.17649 -55.62366 31435 ft 317 kts 99°
2026-04-23 19:36 64.17360 -55.52323 31432 ft 316 kts 99°
2026-04-23 19:36 64.17063 -55.42236 31430 ft 316 kts 99°
2026-04-23 19:37 64.16758 -55.32180 31426 ft 316 kts 99°
2026-04-23 19:37 64.16448 -55.22149 31430 ft 315 kts 99°
2026-04-23 19:38 64.16131 -55.12119 31424 ft 315 kts 99°
2026-04-23 19:38 64.15807 -55.02101 31428 ft 315 kts 99°
2026-04-23 19:38 64.15644 -54.97103 31229 ft 313 kts 99°
2026-04-23 19:39 64.15481 -54.92169 30836 ft 309 kts 99°
2026-04-23 19:39 64.15318 -54.87283 30404 ft 305 kts 99°
2026-04-23 19:39 64.15155 -54.82465 29963 ft 300 kts 99°
2026-04-23 19:39 64.14994 -54.77765 29557 ft 299 kts 99°
2026-04-23 19:40 64.14829 -54.73033 29151 ft 299 kts 99°
2026-04-23 19:40 64.14664 -54.68285 28746 ft 300 kts 99°
2026-04-23 19:40 64.14497 -54.63506 28333 ft 301 kts 99°
2026-04-23 19:40 64.14327 -54.58723 27925 ft 301 kts 99°
2026-04-23 19:41 64.14155 -54.53938 27511 ft 301 kts 99°
2026-04-23 19:41 64.13984 -54.49167 27102 ft 301 kts 99°
2026-04-23 19:41 64.13809 -54.44401 26696 ft 301 kts 99°
2026-04-23 19:41 64.13634 -54.39634 26287 ft 301 kts 99°
2026-04-23 19:42 64.13456 -54.34841 25874 ft 301 kts 99°
2026-04-23 19:42 64.13280 -54.30129 25467 ft 301 kts 99°
2026-04-23 19:42 64.13100 -54.25368 25055 ft 300 kts 99°
2026-04-23 19:42 64.12916 -54.20545 24647 ft 301 kts 99°
2026-04-23 19:43 64.12734 -54.15779 24232 ft 300 kts 99°
2026-04-23 19:43 64.12549 -54.11006 23794 ft 300 kts 99°
2026-04-23 19:43 64.12365 -54.06302 23371 ft 301 kts 99°
2026-04-23 19:43 64.12174 -54.01478 22955 ft 302 kts 99°
2026-04-23 19:44 64.11983 -53.96669 22541 ft 303 kts 99°
2026-04-23 19:44 64.11791 -53.91861 22128 ft 304 kts 99°
2026-04-23 19:44 64.11598 -53.87092 21720 ft 305 kts 99°
2026-04-23 19:44 64.11401 -53.82246 21303 ft 306 kts 99°
2026-04-23 19:45 64.11201 -53.77376 20881 ft 307 kts 99°
2026-04-23 19:45 64.11000 -53.72515 20466 ft 308 kts 98°
2026-04-23 19:45 64.10796 -53.67637 20046 ft 309 kts 98°
2026-04-23 19:45 64.10589 -53.62724 19621 ft 310 kts 98°
2026-04-23 19:46 64.10379 -53.57783 19199 ft 311 kts 98°
2026-04-23 19:46 64.10170 -53.52881 18776 ft 313 kts 98°
2026-04-23 19:46 64.09955 -53.47899 18318 ft 313 kts 98°
2026-04-23 19:46 64.09739 -53.42940 17885 ft 314 kts 98°
2026-04-23 19:47 64.09594 -53.39644 17599 ft 314 kts 98°
2026-04-23 19:47 64.09300 -53.32996 17024 ft 314 kts 98°
2026-04-23 19:47 64.09079 -53.28024 16595 ft 315 kts 98°
2026-04-23 19:47 64.08854 -53.23044 16165 ft 315 kts 98°
2026-04-23 19:48 64.08629 -53.18058 15734 ft 316 kts 98°
2026-04-23 19:48 64.08401 -53.13064 15306 ft 316 kts 98°
2026-04-23 19:48 64.08171 -53.08071 14877 ft 314 kts 98°
2026-04-23 19:48 64.07943 -53.03123 14449 ft 312 kts 98°
2026-04-23 19:49 64.07714 -52.98215 13999 ft 309 kts 98°
2026-04-23 19:49 64.07485 -52.93351 13570 ft 307 kts 98°
2026-04-23 19:49 64.07257 -52.88533 13152 ft 304 kts 98°
2026-04-23 19:49 64.07028 -52.83744 12735 ft 302 kts 98°
2026-04-23 19:50 64.06801 -52.78992 12330 ft 300 kts 98°
2026-04-23 19:50 64.06572 -52.74255 11923 ft 298 kts 98°
2026-04-23 19:50 64.06345 -52.69577 11517 ft 295 kts 98°
2026-04-23 19:50 64.06117 -52.64931 11114 ft 293 kts 98°
2026-04-23 19:51 64.05890 -52.60322 10716 ft 291 kts 98°
2026-04-23 19:51 64.05662 -52.55736 10310 ft 289 kts 98°
2026-04-23 19:51 64.05436 -52.51207 9880 ft 287 kts 98°
2026-04-23 19:51 64.05211 -52.46740 9381 ft 286 kts 98°
2026-04-23 19:52 64.04981 -52.42184 8750 ft 283 kts 98°
2026-04-23 19:52 64.04755 -52.37739 8310 ft 281 kts 98°
2026-04-23 19:52 64.04531 -52.33373 7931 ft 280 kts 98°
2026-04-23 19:52 64.04304 -52.28966 7553 ft 279 kts 98°
2026-04-23 19:53 64.04070 -52.24458 7169 ft 278 kts 98°
2026-04-23 19:53 64.03846 -52.20153 6801 ft 276 kts 98°
2026-04-23 19:53 64.03623 -52.15885 6437 ft 262 kts 98°
2026-04-23 19:53 64.03419 -52.11982 6177 ft 230 kts 98°
2026-04-23 19:54 64.03375 -52.11142 6126 ft 223 kts 98°
2026-04-23 19:54 64.03345 -52.10564 6114 ft 216 kts 99°
2026-04-23 19:54 64.03171 -52.07317 5952 ft 200 kts 99°
2026-04-23 19:55 64.03002 -52.04223 5728 ft 194 kts 99°
2026-04-23 19:55 64.02674 -52.01282 5487 ft 190 kts 110°
2026-04-23 19:55 64.02276 -51.98510 5263 ft 178 kts 109°
2026-04-23 19:55 64.01918 -51.95886 5049 ft 169 kts 109°
2026-04-23 19:56 64.01570 -51.93355 4835 ft 166 kts 109°
2026-04-23 19:56 64.01222 -51.90839 4628 ft 166 kts 108°
2026-04-23 19:56 64.00876 -51.88335 4408 ft 164 kts 107°
2026-04-23 19:56 64.00613 -51.85870 4101 ft 159 kts 91°
2026-04-23 19:57 64.00800 -51.83407 3996 ft 160 kts 68°
2026-04-23 19:57 64.01454 -51.81391 3784 ft 160 kts 37°
2026-04-23 19:57 64.02084 -51.80455 3640 ft 160 kts 28°
2026-04-23 19:57 64.03430 -51.79276 3359 ft 156 kts 20°
2026-04-23 19:58 64.04462 -51.78466 3151 ft 158 kts 19°
2026-04-23 19:58 64.05507 -51.77695 2935 ft 158 kts 17°
2026-04-23 19:58 64.06542 -51.76991 2727 ft 150 kts 17°
2026-04-23 19:58 64.07502 -51.76275 2519 ft 138 kts 17°
2026-04-23 19:59 64.08352 -51.75688 2459 ft 121 kts 17°
2026-04-23 19:59 64.09113 -51.75127 2331 ft 112 kts 17°
2026-04-23 19:59 64.09852 -51.74592 2169 ft 109 kts 17°
2026-04-23 19:59 64.10553 -51.74097 2005 ft 101 kts 15°
2026-04-23 20:00 64.11203 -51.73619 1859 ft 96 kts 17°
2026-04-23 20:00 64.11827 -51.73176 1719 ft 94 kts 17°
2026-04-23 20:00 64.12465 -51.72701 1579 ft 97 kts 16°
2026-04-23 20:00 64.13078 -51.72264 1432 ft 90 kts 17°
2026-04-23 20:01 64.13651 -51.71854 1287 ft 83 kts 17°
2026-04-23 20:01 64.14195 -51.71464 1162 ft 81 kts 15°
2026-04-23 20:01 64.14727 -51.71077 1038 ft 81 kts 17°
2026-04-23 20:01 64.15263 -51.70697 916 ft 80 kts 17°
2026-04-23 20:02 64.15789 -51.70306 801 ft 79 kts 17°
2026-04-23 20:02 64.16104 -51.70091 735 ft 78 kts 17°
2026-04-23 20:02 64.16617 -51.69709 632 ft 77 kts 17°
2026-04-23 20:02 64.17126 -51.69341 532 ft 75 kts 18°
2026-04-23 20:03 64.17629 -51.68939 492 ft 77 kts 19°
2026-04-23 20:03 64.18134 -51.68521 446 ft 76 kts 18°
2026-04-23 20:03 64.18623 -51.68136 389 ft 75 kts 17°
2026-04-23 20:03 64.19111 -51.67751 279 ft 64 kts 18°
2026-04-23 20:04 64.19388 -51.67533 270 ft 18 kts 20°
2026-04-23 20:04 64.19466 -51.67483 272 ft 2 kts 53°
2026-04-23 20:04 64.19445 -51.67486 271 ft 5 kts 206°
2026-04-23 20:04 64.19391 -51.67530 270 ft 14 kts 199°
2026-04-23 20:05 64.19310 -51.67595 270 ft 23 kts 199°
2026-04-23 20:05 64.19118 -51.67751 272 ft 15 kts 198°
2026-04-23 20:05 64.19084 -51.67696 274 ft 4 kts 110°
2026-04-23 20:05 64.19079 -51.67665 274 ft 0 kts 110°
2026-04-23 20:06 64.19078 -51.67662 274 ft 1 kts 110°
2026-04-23 20:06 64.19066 -51.67582 275 ft 7 kts 110°
2026-04-23 20:06 64.19096 -51.67450 275 ft 15 kts 20°
2026-04-23 20:06 64.19147 -51.67461 275 ft 5 kts 88°
2026-04-23 20:07 64.19140 -51.67441 275 ft 0 kts 176°
2026-04-23 20:07 64.19130 -51.67448 275 ft 0 kts 201°